Weather History for Alamosa, CO

Change the Weather History Date:

Saturday, April 6, 2013

  Actual Average Record
Temperature  
Mean Temperature 45 °F 39 °F  
Max Temperature 64 °F 56 °F 76 °F (1991)
Min Temperature 26 °F 22 °F 2 °F (1936)
Degree Days  
Heating Degree Days 20 26  
Month to date heating degree days 128 159  
Since 1 July heating degree days 7874 7465  
Cooling Degree Days 0 0  
Month to date cooling degree days 0 0  
Year to date cooling degree days 0 0  
Moisture  
Dew Point 21 °F    
Average Humidity 48    
Maximum Humidity 81    
Minimum Humidity 14    
Precipitation  
Precipitation 0.00 in 0.02 in 0.21 in (1936)
Month to date precipitation 0.01 0.12  
Year to date precipitation 0.57 1.17  
Snow  
Snow 0.00 in 0.10 in 4.00 in (1939)
Month to date snowfall T 0.9  
Since 1 July snowfall 18.9 24.0  
Snow Depth 0.00 in    
Sea Level Pressure  
Sea Level Pressure 29.85 in    
Wind  
Wind Speed 7 mph (West)    
Max Wind Speed 23 mph    
Max Gust Speed 31 mph    
Visibility 10 miles    
Events      
T = Trace of Precipitation, MM = Missing Value Source: NWS Daily Summary

Daily Weather History Graph

Daily Weather History Graph

Search for Another Location

Airport:

Trip Planner

Search our weather history database for the weather conditions in past years. The results will help you decide how hot, cold, wet, or windy it might be!

Date:

Astronomy

Apr. 06, 2013 Rise Set
Actual Time 6:41 AM MDT 7:30 PM MDT
Civil Twilight 6:14 AM MDT 7:57 PM MDT
Nautical Twilight 5:43 AM MDT 8:28 PM MDT
Astronomical Twilight 5:10 AM MDT 9:01 PM MDT
Moon 4:21 AM MDT (4/6) 4:06 PM MDT (4/6)
Length of Visible Light 13h 42m
Length of Day
12h 49m
Waning Crescent, 14% of the Moon is Illuminated
Apr 6
Waning Crescent
Apr 10
New
Apr 18
First Quarter
Apr 25
Full
May 2
Last Quarter

Hourly Weather History & Observations

Time (MDT) Temp. Windchill Dew Point Humidity Pressure Visibility Wind Dir Wind Speed Gust Speed Precip Events Conditions
12:52 AM 41.0 °F 34.3 °F 30.0 °F 65% 29.82 in 10.0 mi NNE 11.5 mph - N/A   Clear
1:52 AM 37.0 °F - 28.0 °F 70% 29.84 in 10.0 mi Calm Calm - N/A   Clear
2:52 AM 30.9 °F 24.3 °F 25.0 °F 79% 29.87 in 10.0 mi West 6.9 mph - N/A   Clear
3:52 AM 28.0 °F 21.7 °F 23.0 °F 81% 29.91 in 10.0 mi WSW 5.8 mph - N/A   Clear
4:52 AM 28.0 °F 24.2 °F 21.9 °F 78% 29.89 in 10.0 mi Variable 3.5 mph - N/A   Clear
5:52 AM 28.4 °F 21.2 °F 21.2 °F 74% 30.03 in 10.0 mi WSW 6.9 mph - N/A   Clear
6:52 AM 27.0 °F 20.5 °F 21.9 °F 81% 29.94 in 10.0 mi WSW 5.8 mph - N/A   Clear
7:52 AM 33.1 °F 30.0 °F 24.1 °F 70% 29.96 in 10.0 mi SSW 3.5 mph - N/A   Clear
8:52 AM 44.1 °F 42.5 °F 28.9 °F 55% 29.94 in 10.0 mi SW 3.5 mph - N/A   Clear
9:52 AM 48.0 °F - 28.0 °F 46% 29.90 in 10.0 mi Calm Calm - N/A   Clear
10:52 AM 52.0 °F - 27.0 °F 38% 29.89 in 10.0 mi Variable 4.6 mph - N/A   Clear
11:52 AM 55.0 °F - 26.1 °F 33% 29.88 in 10.0 mi SE 8.1 mph - N/A   Clear
12:52 PM 59.0 °F - 24.1 °F 26% 29.81 in 10.0 mi SE 8.1 mph - N/A   Clear
1:52 PM 62.1 °F - 19.0 °F 19% 29.77 in 10.0 mi NW 6.9 mph - N/A   Scattered Clouds
2:52 PM 62.1 °F - 14.0 °F 15% 29.77 in 10.0 mi West 15.0 mph 29.9 mph N/A   Mostly Cloudy
3:52 PM 60.1 °F - 16.0 °F 18% 29.79 in 10.0 mi Variable 3.5 mph 17.3 mph N/A   Overcast
4:32 PM 60.8 °F - 17.6 °F 19% 29.91 in 10.0 mi West 12.7 mph - N/A   Overcast
4:52 PM 60.1 °F - 16.0 °F 18% 29.78 in 10.0 mi Variable 4.6 mph 28.8 mph N/A   Overcast
5:52 PM 59.0 °F - 19.0 °F 21% 29.79 in 10.0 mi NW 5.8 mph 24.2 mph N/A   Overcast
6:52 PM 57.9 °F - 12.0 °F 16% 29.80 in 10.0 mi WSW 18.4 mph 23.0 mph N/A   Mostly Cloudy
7:52 PM 54.0 °F - 14.0 °F 21% 29.80 in 10.0 mi WSW 16.1 mph 24.2 mph N/A   Clear
8:52 PM 52.0 °F - 14.0 °F 22% 29.79 in 10.0 mi WNW 6.9 mph - N/A   Mostly Cloudy
9:52 PM 52.0 °F - 18.0 °F 26% 29.79 in 10.0 mi WNW 8.1 mph - N/A   Overcast
10:52 PM 48.0 °F - 16.0 °F 28% 29.79 in 10.0 mi WSW 4.6 mph - N/A   Mostly Cloudy
11:52 PM 45.0 °F 42.6 °F 16.0 °F 31% 29.80 in 10.0 mi North 4.6 mph - N/A   Clear